This demonstration page uses our WeatherBlox Daily Observations layout. Learn more.

39.92423, -83.80882

Hourly Observations for June 16, 2016

Temp ( °F °C ) Dew Point ( °F °C ) Humidity (%) Winds ( mph kmh ) Pressure ( in mb ) Visibility ( mi km ) Precip ( " mm )
12:56 am 00:56 Clear 68 20 66 18.8 93 93 SW 8 13 29.8 1009 10 16.0934 0 0
1:56 am 01:56 Clear 67 19.4 67 19.4 100 100 SSW 5 7 29.8 1009 10 16.0934 0 0
2:56 am 02:56 Clear 66 18.8 66 18.8 100 100 SW 9 15 29.8 1009 10 16.0934 0 0
3:56 am 03:56 Clear 67 19.4 66 18.8 96 96 SW 7 11 29.8 1009 10 16.0934 0 0
4:56 am 04:56 Clear 66 18.8 66 18.8 100 100 SSW 6 9 29.78 1009 10 16.0934 0 0
5:56 am 05:56 Clear 66 18.8 66 18.8 100 100 S 8 13 29.77 1008 10 16.0934 0 0
6:56 am 06:56 Sunny with Mist and Fog 66 18.8 66 18.8 100 100 SSW 9 15 29.78 1008 6 9.65604 0 0
7:56 am 07:56 Sunny with Mist and Fog 68 20 68 20 100 100 SSW 12 19 29.78 1008 6 9.65604 0 0
8:56 am 08:56 Sunny 73 22.7 71 21.6 94 94 SSW 12 19 29.77 1008 10 16.0934 0 0
9:56 am 09:56 Sunny 77 25 71 21.6 81 81 SW 12 19 29.75 1008 10 16.0934 0 0
10:18 am 10:18 Mostly Cloudy 77 25 72 22 83 83 W 12 19 29.71 1006 10 16.0934 0 0
10:56 am 10:56 Mostly Cloudy 78 25.5 72 22.2 82 82 WSW 12 19 29.75 1007 10 16.0934 0 0
11:16 am 11:16 Partly Cloudy 81 27 73 23 79 79 SW 12 19 29.71 1006 10 16.0934 0 0
11:56 am 11:56 Mostly Sunny 82 27.7 74 23.3 77 77 SW 13 20 29.72 1007 10 16.0934 0 0
12:56 pm 12:56 Mostly Sunny 84 28.8 69 20.5 61 61 W 17 28 29.73 1007 10 16.0934 0 0
1:56 pm 13:56 Partly Cloudy 83 28.3 68 20 61 61 WNW 16 26 29.72 1007 10 16.0934 0 0
2:56 pm 14:56 Mostly Cloudy 82 27.7 65 18.3 57 57 W 21 33 29.73 1007 10 16.0934 0 0
3:56 pm 15:56 Mostly Cloudy 82 27.7 65 18.3 57 57 W 16 26 29.72 1007 10 16.0934 0 0
4:56 pm 16:56 Mostly Cloudy 82 27.7 64 17.7 55 55 WNW 20 31 29.74 1007 10 16.0934 0 0
5:56 pm 17:56 Mostly Sunny 80 26.6 65 18.3 60 60 W 17 28 29.75 1008 10 16.0934 0 0
6:56 pm 18:56 Partly Cloudy 79 26.1 64 17.7 60 60 WNW 18 30 29.76 1008 10 16.0934 0 0
7:56 pm 19:56 Partly Cloudy 74 23.3 63 17.2 69 69 WNW 17 28 29.78 1009 10 16.0934 0 0
8:25 pm 20:25 Mostly Cloudy 72 22 63 17 73 73 WNW 18 30 29.77 1008 10 16.0934 0 0
8:56 pm 20:56 Cloudy 70 21.1 62 16.6 76 76 WNW 15 24 29.79 1009 10 16.0934 0 0
9:56 pm 21:56 Cloudy 69 20.5 63 17.2 81 81 NW 8 13 29.81 1010 10 16.0934 0 0
10:56 pm 22:56 Cloudy 67 19.4 62 16.6 84 84 NW 12 19 29.83 1010 10 16.0934 0 0
11:56 pm 23:56 Cloudy 67 19.4 62 16.6 84 84 NW 13 20 29.83 1010 10 16.0934 0 0

Powered by AerisWeather